Location: Torch Lake Township
(45.0753°N, 85.3586°W)
Time: 14:15:13
(UTC-04:00)

Amateur Radio Satellites - All Passes

Search period start: 22 September 2014 13:45
Search period end: 23 September 2014 13:45
Location: Torch Lake Township, 45.0753°N, 85.3586°W

Satellite Date Start Highest point End Downlink Frequencies (MHz)
Time Altitude Azimuth
AO-27 22 Sep 13:49:16 13:53:14 23° 62° (ENE) 13:57:13 436.795 MHz FM
AO-Echo 22 Sep 13:51:36 13:55:18 23° 64° (ENE) 13:58:59 ?
TMSAT-1 22 Sep 13:58:17 13:59:00 10° 53° (NE) 13:59:43 436.925 FM
PCSat 22 Sep 14:01:16 14:06:09 34° 313° (NW) 14:11:05 145.825 MHz
Oscar 16 22 Sep 14:01:31 14:06:38 62° 72° (ENE) 14:11:46 437.025 USB, Beacon 2401.1428
ITAMSAT 1 22 Sep 14:51:18 14:56:26 74° 73° (ENE) 15:01:38 435.822 SSB
Uribyol 2 22 Sep 14:54:40 14:59:50 84° 74° (ENE) 15:05:04 436.500 FM
Gurwin Techsat 1B 22 Sep 14:57:59 15:02:57 43° 68° (ENE) 15:07:57 435.225 FM
Oscar 19 22 Sep 15:01:44 15:06:37 41° 262° (W) 15:11:33 437.125 CW, 437.150 USB
JAS-1B 22 Sep 15:05:08 15:13:30 77° 256° (WSW) 15:20:28 435.800 - 435.900 CW/SSB
Sapphire 22 Sep 15:21:11 15:23:55 14° 329° (NNW) 15:26:39 437.095 MHz 1200 baud AX-25 AFSK
RS-15 22 Sep 15:24:26 15:34:17 39° 252° (WSW) 15:44:31 29.354 - 29.394 USB, Beacon 29.352 USB
AO-7 22 Sep 15:25:49 15:32:41 30° 53° (NE) 15:39:33 29.400 - 29.500 MHz
AO-27 22 Sep 15:27:21 15:32:23 53° 260° (W) 15:37:29 436.795 MHz FM
AO-Echo 22 Sep 15:29:23 15:33:51 42° 262° (W) 15:38:19 ?
TMSAT-1 22 Sep 15:32:41 15:37:54 64° 72° (ENE) 15:43:09 436.925 FM
Oscar 16 22 Sep 15:42:52 15:46:24 18° 269° (W) 15:49:58 437.025 USB, Beacon 2401.1428
ITAMSAT 1 22 Sep 16:33:38 16:36:30 15° 271° (W) 16:39:24 435.822 SSB
Uribyol 2 22 Sep 16:37:39 16:39:59 13° 272° (W) 16:42:20 436.500 FM
Gurwin Techsat 1B 22 Sep 16:38:37 16:43:04 27° 266° (W) 16:47:34 435.225 FM
Uosat F 22 Sep 16:41:38 16:46:27 51° 70° (ENE) 16:51:18 435.120 FM
JAS-1B 22 Sep 17:00:41 17:04:50 15° 271° (W) 17:08:42 435.800 - 435.900 CW/SSB
Saudisat 1A 22 Sep 17:05:58 17:09:58 35° 117° (ESE) 17:14:00 436.775 MHz
TMSAT-1 22 Sep 17:14:43 17:18:16 18° 270° (W) 17:21:52 436.925 FM
AO-7 22 Sep 17:16:32 17:24:49 73° 254° (WSW) 17:33:09 29.400 - 29.500 MHz
Hamsat 22 Sep 17:22:41 17:24:57 14° 61° (ENE) 17:27:12 145.90 MHz
MaSat-1 22 Sep 17:33:06 17:36:46 39° 55° (NE) 17:39:55 437.345 MHz
JAS-2 22 Sep 17:38:56 17:43:16 28° 64° (ENE) 17:47:40 435.800 - 435.900 CW/SSB, 435.910 FM
OPAL 22 Sep 17:52:44 17:57:08 28° 97° (E) 18:01:27 ?
Uosat F 22 Sep 18:21:48 18:25:32 21° 267° (W) 18:29:17 435.120 FM
Saudisat 1A 22 Sep 18:45:37 18:49:34 32° 316° (NW) 18:53:34 436.775 MHz
Sapphire 22 Sep 18:55:55 18:56:30 10° 24° (NNE) 18:57:05 437.095 MHz 1200 baud AX-25 AFSK
Hamsat 22 Sep 18:56:02 19:00:22 68° 259° (WSW) 19:04:43 145.90 MHz
MaSat-1 22 Sep 19:10:52 19:12:57 15° 258° (WSW) 19:14:52 437.345 MHz
AO-7 22 Sep 19:14:46 19:19:01 15° 274° (W) 19:23:17 29.400 - 29.500 MHz
PCSat 22 Sep 19:21:04 19:23:54 14° 31° (NNE) 19:26:44 145.825 MHz
JAS-2 22 Sep 19:23:27 19:28:17 38° 263° (W) 19:33:09 435.800 - 435.900 CW/SSB, 435.910 FM
KITSAT 1 22 Sep 19:28:20 19:35:59 49° 113° (ESE) 19:43:40 435.175 FM
OPAL 22 Sep 19:31:18 19:36:08 41° 295° (WNW) 19:40:53 ?
SO-67 22 Sep 19:45:22 19:48:46 58° 75° (ENE) 19:52:11 435.3500 MHz FM
STRAND 1 22 Sep 20:17:14 20:22:14 50° 100° (E) 20:27:13 ?
HO-68 22 Sep 20:19:09 20:24:55 28° 56° (ENE) 20:30:41 435.675 MHz FM
Sapphire 22 Sep 20:36:42 20:41:40 35° 47° (NE) 20:46:36 437.095 MHz 1200 baud AX-25 AFSK
UKube-1 22 Sep 21:02:58 21:05:29 15° 61° (ENE) 21:08:01 145.840 MHz, 145.915 MHz
PCSat 22 Sep 21:03:13 21:08:34 55° 53° (NE) 21:13:53 145.825 MHz
KITSAT 1 22 Sep 21:23:42 21:31:27 48° 314° (NW) 21:39:14 435.175 FM
SO-50 22 Sep 21:42:30 21:45:37 19° 111° (ESE) 21:48:48 436.795 FM
STRAND 1 22 Sep 21:57:05 22:01:07 24° 298° (WNW) 22:05:09 ?
HO-68 22 Sep 22:04:57 22:12:03 69° 256° (WSW) 22:19:13 435.675 MHz FM
FUNcube-1 22 Sep 22:16:29 22:20:10 26° 66° (ENE) 22:23:56 145.950 - 145.970 MHz USB
Oscar 11 22 Sep 22:16:41 22:20:58 58° 73° (ENE) 22:25:17 145.825 FM, Beacon 2401.500 USB
Sapphire 22 Sep 22:20:05 22:25:11 42° 247° (WSW) 22:30:16 437.095 MHz 1200 baud AX-25 AFSK
UKube-1 22 Sep 22:36:56 22:41:13 61° 258° (WSW) 22:45:32 145.840 MHz, 145.915 MHz
PCSat 22 Sep 22:47:20 22:51:37 24° 252° (WSW) 22:55:53 145.825 MHz
ZACube-1 22 Sep 22:58:42 23:03:07 67° 74° (ENE) 23:07:40 437.345 MHz
UOSAT-12 22 Sep 23:03:47 23:04:45 11° 106° (ESE) 23:05:43 437.025 FM, 437.400 FM
SO-50 22 Sep 23:21:18 23:25:44 58° 310° (NW) 23:30:19 436.795 FM
KITSAT 1 22 Sep 23:23:34 23:29:09 20° 341° (NNW) 23:34:44 435.175 FM
FUNcube-1 22 Sep 23:52:19 23:56:24 35° 264° (W) 00:00:36 145.950 - 145.970 MHz USB
Saudisat 1A 22 Sep 23:52:22 23:54:14 12° 29° (NNE) 23:56:05 436.775 MHz
Oscar 11 22 Sep 23:55:06 23:57:32 15° 270° (W) 23:59:59 145.825 FM, Beacon 2401.500 USB
HO-68 22 Sep 23:58:33 00:01:03 12° 275° (W) 00:03:34 435.675 MHz FM
Oscar 10/S400 23 Sep 00:22:48 01:09:22 47° 204° (SSW) 08:00:46 145.825 - 145.975 CW/USB, Beacon 145.810 USB
ZACube-1 23 Sep 00:37:51 00:40:02 13° 272° (W) 00:42:14 437.345 MHz
UOSAT-12 23 Sep 00:39:27 00:44:05 83° 124° (SE) 00:48:50 437.025 FM, 437.400 FM
SO-50 23 Sep 01:04:58 01:07:19 14° 332° (NNW) 01:09:42 436.795 FM
KITSAT 1 23 Sep 01:23:06 01:28:14 18° 12° (NNE) 01:33:22 435.175 FM
Saudisat 1A 23 Sep 01:30:28 01:34:49 53° 50° (NE) 01:39:08 436.775 MHz
AO-40 23 Sep 01:41:23 02:42:06 13° 232° (SW) 04:07:36 Beacon 2401.320
Oscar 16 23 Sep 02:12:15 02:15:50 19° 91° (E) 02:19:23 437.025 USB, Beacon 2401.1428
UOSAT-12 23 Sep 02:21:24 02:24:50 20° 325° (NW) 02:28:19 437.025 FM, 437.400 FM
ISS 23 Sep 02:24:05 02:27:10 36° 141° (SE) 02:30:15 145.800 FM
JAS-1B 23 Sep 02:49:10 02:53:27 21° 92° (E) 02:57:45 435.800 - 435.900 CW/SSB
ITAMSAT 1 23 Sep 03:02:50 03:06:56 23° 93° (E) 03:11:00 435.822 SSB
Uribyol 2 23 Sep 03:05:56 03:10:16 26° 94° (E) 03:14:34 436.500 FM
Saudisat 1A 23 Sep 03:10:50 03:14:02 20° 248° (WSW) 03:17:12 436.775 MHz
Oscar 19 23 Sep 03:10:57 03:16:05 61° 101° (E) 03:21:09 437.125 CW, 437.150 USB
Gurwin Techsat 1B 23 Sep 03:13:33 03:16:22 14° 88° (E) 03:19:10 435.225 FM
KITSAT 1 23 Sep 03:18:57 03:26:22 38° 40° (NE) 03:33:45 435.175 FM
AO-Echo 23 Sep 03:33:46 03:38:32 50° 100° (E) 03:43:25 ?
OPAL 23 Sep 03:35:22 03:36:25 11° 51° (NE) 03:37:28 ?
AO-27 23 Sep 03:38:13 03:43:15 47° 99° (E) 03:48:17 436.795 MHz FM
RS-15 23 Sep 03:39:11 03:48:26 33° 106° (ESE) 03:57:33 29.354 - 29.394 USB, Beacon 29.352 USB
TMSAT-1 23 Sep 03:47:14 03:51:17 22° 92° (E) 03:55:18 436.925 FM
Oscar 16 23 Sep 03:50:29 03:55:36 60° 289° (WNW) 04:00:39 437.025 USB, Beacon 2401.1428
ISS 23 Sep 04:00:38 04:03:50 43° 339° (NNW) 04:07:03 145.800 FM
SO-50 23 Sep 04:32:11 04:33:06 10° 22° (NNE) 04:34:01 436.795 FM
JAS-1B 23 Sep 04:39:03 04:44:37 53° 291° (WNW) 04:50:10 435.800 - 435.900 CW/SSB
ITAMSAT 1 23 Sep 04:41:39 04:46:41 50° 290° (WNW) 04:51:43 435.822 SSB
Uribyol 2 23 Sep 04:44:57 04:49:55 45° 292° (WNW) 04:54:51 436.500 FM
Uosat F 23 Sep 04:49:05 04:51:24 13° 89° (E) 04:53:43 435.120 FM
Oscar 19 23 Sep 04:51:16 04:54:58 20° 299° (WNW) 04:58:39 437.125 CW, 437.150 USB
Gurwin Techsat 1B 23 Sep 04:51:38 04:56:58 80° 286° (WNW) 05:02:16 435.225 FM
OPAL 23 Sep 05:09:09 05:14:16 62° 69° (ENE) 05:19:27 ?
AO-Echo 23 Sep 05:13:19 05:17:00 22° 297° (WNW) 05:20:45 ?
KITSAT 1 23 Sep 05:14:19 05:22:18 66° 243° (WSW) 05:30:15 435.175 FM
AO-7 23 Sep 05:16:08 05:23:32 35° 96° (E) 05:30:53 29.400 - 29.500 MHz
AO-27 23 Sep 05:18:17 05:22:30 26° 297° (WNW) 05:26:43 436.795 MHz FM
TMSAT-1 23 Sep 05:26:21 05:31:31 54° 290° (WNW) 05:36:40 436.925 FM
ISS 23 Sep 05:38:15 05:41:06 25° 359° (N) 05:43:56 145.800 FM
RS-15 23 Sep 05:48:45 05:59:46 76° 308° (NW) 06:10:46 29.354 - 29.394 USB, Beacon 29.352 USB
STRAND 1 23 Sep 05:59:26 06:01:50 14° 56° (ENE) 06:04:14 ?
SO-50 23 Sep 06:10:40 06:15:04 35° 45° (NE) 06:19:32 436.795 FM
Uosat F 23 Sep 06:25:45 06:30:48 81° 286° (WNW) 06:35:50 435.120 FM
JAS-2 23 Sep 06:28:25 06:33:27 25° 93° (E) 06:38:56 435.800 - 435.900 CW/SSB, 435.910 FM
Gurwin Techsat 1B 23 Sep 06:33:46 06:36:05 13° 305° (NW) 06:38:23 435.225 FM
Hamsat 23 Sep 06:40:45 06:43:44 19° 92° (E) 06:46:42 145.90 MHz
OPAL 23 Sep 06:49:59 06:53:34 19° 267° (W) 06:57:11 ?
AO-7 23 Sep 07:08:37 07:16:41 59° 296° (WNW) 07:24:45 29.400 - 29.500 MHz
KITSAT 1 23 Sep 07:12:53 07:16:09 13° 262° (W) 07:19:24 435.175 FM
ISS 23 Sep 07:15:11 07:18:22 41° 19° (NNE) 07:21:33 145.800 FM
MaSat-1 23 Sep 07:21:36 07:24:11 14° 102° (ESE) 07:26:45 437.345 MHz
UOSAT-12 23 Sep 07:27:46 07:31:32 23° 38° (NE) 07:35:15 437.025 FM, 437.400 FM
STRAND 1 23 Sep 07:35:10 07:40:15 87° 75° (ENE) 07:45:23 ?
SO-50 23 Sep 07:51:14 07:55:40 37° 243° (WSW) 08:00:08 436.795 FM
RS-15 23 Sep 08:04:42 08:14:13 33° 338° (NNW) 08:23:51 29.354 - 29.394 USB, Beacon 29.352 USB
Uosat F 23 Sep 08:06:48 08:08:47 12° 304° (NW) 08:10:45 435.120 FM
JAS-2 23 Sep 08:12:47 08:18:48 62° 289° (WNW) 08:25:36 435.800 - 435.900 CW/SSB, 435.910 FM
Hamsat 23 Sep 08:15:53 08:19:55 42° 289° (WNW) 08:23:52 145.90 MHz
SO-67 23 Sep 08:39:53 08:43:17 53° 100° (E) 08:46:39 435.3500 MHz FM
ISS 23 Sep 08:51:57 08:55:06 40° 218° (SW) 08:58:14 145.800 FM
MaSat-1 23 Sep 08:55:18 09:00:18 81° 298° (WNW) 09:05:09 437.345 MHz
AO-7 23 Sep 09:03:17 09:07:48 16° 318° (NW) 09:12:19 29.400 - 29.500 MHz
UOSAT-12 23 Sep 09:07:25 09:12:08 68° 238° (WSW) 09:16:46 437.025 FM, 437.400 FM
STRAND 1 23 Sep 09:18:12 09:20:08 12° 272° (W) 09:22:05 ?
HO-68 23 Sep 09:31:28 09:36:40 21° 90° (E) 09:41:49 435.675 MHz FM
JAS-2 23 Sep 10:00:49 10:02:55 12° 306° (NW) 10:05:06 435.800 - 435.900 CW/SSB, 435.910 FM
SO-67 23 Sep 10:14:49 10:15:51 11° 297° (WNW) 10:16:54 435.3500 MHz FM
RS-15 23 Sep 10:21:48 10:30:57 29° 13° (NNE) 10:40:16 29.354 - 29.394 USB, Beacon 29.352 USB
UKube-1 23 Sep 10:23:56 10:27:05 19° 93° (E) 10:30:13 145.840 MHz, 145.915 MHz
MaSat-1 23 Sep 10:34:48 10:37:41 15° 316° (NW) 10:40:29 437.345 MHz
ZACube-1 23 Sep 10:48:02 10:49:58 12° 88° (E) 10:51:53 437.345 MHz
HO-68 23 Sep 11:17:55 11:25:07 80° 289° (WNW) 11:32:17 435.675 MHz FM
Sapphire 23 Sep 11:22:15 11:25:52 19° 105° (ESE) 11:29:30 437.095 MHz 1200 baud AX-25 AFSK
Oscar 11 23 Sep 11:38:21 11:42:43 90° 299° (WNW) 11:47:03 145.825 FM, Beacon 2401.500 USB
FUNcube-1 23 Sep 11:39:09 11:43:31 40° 97° (E) 11:47:48 145.950 - 145.970 MHz USB
PCSat 23 Sep 11:47:24 11:52:10 33° 111° (ESE) 11:56:57 145.825 MHz
UKube-1 23 Sep 11:59:20 12:03:29 44° 290° (WNW) 12:07:37 145.840 MHz, 145.915 MHz
ZACube-1 23 Sep 12:22:17 12:26:55 75° 285° (WNW) 12:31:28 437.345 MHz
RS-15 23 Sep 12:35:25 12:46:18 58° 44° (NE) 12:57:33 29.354 - 29.394 USB, Beacon 29.352 USB
Oscar 19 23 Sep 12:53:08 12:56:16 16° 58° (ENE) 12:59:24 437.125 CW, 437.150 USB
Sapphire 23 Sep 13:03:19 13:08:42 70° 304° (NW) 13:14:09 437.095 MHz 1200 baud AX-25 AFSK
HO-68 23 Sep 13:07:09 13:11:45 19° 309° (NW) 13:16:22 435.675 MHz FM
AO-Echo 23 Sep 13:14:39 13:15:41 11° 56° (NE) 13:16:42 ?
FUNcube-1 23 Sep 13:15:59 13:19:40 24° 295° (WNW) 13:23:19 145.950 - 145.970 MHz USB
Oscar 11 23 Sep 13:17:09 13:18:12 11° 302° (WNW) 13:19:14 145.825 FM, Beacon 2401.500 USB
AO-27 23 Sep 13:22:19 13:24:49 14° 56° (NE) 13:27:19 436.795 MHz FM
PCSat 23 Sep 13:30:19 13:35:27 43° 310° (NW) 13:40:38 145.825 MHz
Oscar 16 23 Sep 13:30:48 13:35:26 34° 66° (ENE) 13:40:05 437.025 USB, Beacon 2401.1428
